PDT,Max TemperatureF,Mean TemperatureF,Min TemperatureF,Max Dew PointF,MeanDew PointF,Min DewpointF,Max Humidity, Mean Humidity, Min Humidity, Max Sea Level PressureIn, Mean Sea Level PressureIn, Min Sea Level PressureIn, Max VisibilityMiles, Mean VisibilityMiles, Min VisibilityMiles, Max Wind SpeedMPH, Mean Wind SpeedMPH, Max Gust SpeedMPH,PrecipitationIn, CloudCover, Events, WindDirDegrees
2013-9-1,90,66,41,61,47,37,92,54,16,29.92,29.87,29.80,10,10,10,12,2,14,T,0,Rain,154
2013-9-2,76,68,60,63,56,41,84,58,31,29.96,29.89,29.79,10,10,4,21,6,26,0.10,3,Rain,89
2013-9-3,80,69,58,64,58,55,87,68,48,30.10,29.99,29.91,10,9,2,21,7,26,0.23,3,Rain,106
2013-9-4,85,69,53,63,57,52,93,67,40,30.08,30.00,29.94,10,10,4,41,6,54,0.25,3,Rain,166
2013-9-5,79,65,51,61,57,48,100,73,46,30.09,29.97,29.88,10,10,4,23,6,29,0.06,3,Rain,134
2013-9-6,74,58,42,54,46,42,100,67,33,30.13,30.09,29.99,10,7,0,17,6,22,0.01,1,Fog,253
2013-9-7,79,60,41,54,49,40,100,68,35,30.15,30.07,29.97,10,10,10,12,4,16,0.00,0,,316
2013-9-8,75,60,45,50,47,43,93,65,36,30.07,30.03,30.00,10,10,10,24,9,30,0.00,0,,299
2013-9-9,82,62,42,51,46,42,100,64,28,30.08,30.01,29.95,10,10,9,15,5,18,0.00,0,,279
2013-9-10,85,63,40,51,45,40,100,62,23,30.07,30.00,29.94,10,9,2,8,2,10,0.00,0,,251
2013-9-11,90,66,41,54,46,39,96,57,17,30.10,30.02,29.96,10,10,10,8,2,10,0.00,0,,236
2013-9-12,87,66,45,59,51,45,93,62,30,30.07,29.97,29.91,10,10,10,28,5,36,0.00,2,,163
2013-9-13,84,71,57,59,54,49,84,61,37,29.94,29.86,29.76,10,10,10,16,4,20,0.00,2,,212
2013-9-14,88,68,48,53,50,43,93,57,21,29.89,29.84,29.78,10,10,10,13,3,15,0.00,0,,152
2013-9-15,86,70,53,56,52,47,93,60,27,29.85,29.79,29.71,10,10,9,26,9,35,0.03,2,Rain,117
2013-9-16,79,63,46,52,48,44,100,68,35,29.92,29.86,29.80,10,10,10,17,5,21,0.00,0,,299
2013-9-17,66,55,44,48,44,39,93,73,52,29.88,29.79,29.71,10,10,10,23,9,29,0.04,3,Rain,291
2013-9-18,63,48,32,40,38,34,92,64,36,30.16,30.05,29.90,10,10,2,3,4,5,0.00,4,,301
2013-9-19,70,48,26,39,31,27,100,64,27,30.22,30.13,29.99,10,7,0,21,7,30,0.00,0,Fog,100
2013-9-20,79,55,30,39,33,27,89,52,15,29.98,29.79,29.59,10,10,10,22,8,31,0.00,0,,122
2013-9-21,66,53,39,48,41,36,83,59,34,29.81,29.70,29.63,10,10,10,17,5,24,T,4,Rain,173
2013-9-22,67,54,41,46,41,33,86,58,29,29.83,29.77,29.70,10,10,9,17,4,23,0.02,6,Rain,229
2013-9-23,68,51,34,44,39,34,93,64,34,30.02,29.95,29.85,10,10,10,17,4,23,0.00,2,,242
2013-9-24,57,46,35,49,42,35,100,81,61,29.92,29.85,29.79,10,9,2,24,6,30,0.13,6,Rain,280
2013-9-25,53,42,31,40,37,31,100,77,54,29.87,29.81,29.77,10,9,2,25,11,31,0.00,6,,295
2013-9-26,55,47,38,39,37,35,85,68,51,30.08,29.95,29.85,10,10,10,31,18,40,0.00,6,,311
2013-9-27,57,42,26,44,37,26,100,70,40,30.17,30.10,30.05,10,10,8,14,4,20,0.12,4,Rain,164
2013-9-28,63,54,44,47,43,36,92,64,36,30.04,29.90,29.62,10,10,9,33,14,41,0.04,6,Rain,116
2013-9-29,63,53,43,45,41,36,100,68,36,29.83,29.77,29.61,10,9,6,33,12,47,0.52,8,Rain,135
2013-9-30,60,47,34,47,35,28,93,63,33,29.99,29.85,29.62,10,10,7,20,5,25,0.07,2,Rain,176